Regional Weather Roundup
Issued by NWS New Orleans/Baton Rouge, LA

Home | Current Version | Previous Version | Text Only | Print | Product List | Glossary On
Versions: 1 2 3 4 5 6 7 8 9 10 11 12 13 14 15 16 17 18 19 20 21 22 23 24 25 26 27 28
000
ASUS44 KLIX 291711
RWRLIX
NEW ORLEANS REGIONAL WEATHER ROUNDUP
NATIONAL WEATHER SERVICE NEW ORLEANS LA
1200 PM CDT FRI APR 29 2016

NOTE: "FAIR" INDICATES FEW OR NO CLOUDS BELOW 12,000 FEET WITH NO
      SIGNIFICANT WEATHER AND/OR OBSTRUCTIONS TO VISIBILITY.
      SKY/WX - SKY CONDITION AND SIGNIFICANT WEATHER.
      TMP - AIR TEMPERATURE.     DP    - DEWPOINT TEMPERATURE.
      RH  - RELATIVE HUMIDITY.   PRES  - PRESSURE.
      HI  - HEAT INDEX.          WCI   - WIND CHILL INDEX.

*  THESE STATIONS ARE NOT NWS OR FAA STATIONS AND ARE NOT UNDER
   NWS QUALITY CONTROL.

LAZ038-040-048-061>063-065>067-069-291800-
SOUTHEAST LOUISIANA

CITY           SKY/WX    TMP DP  RH WIND       PRES   REMARKS
N.O. AUDUBON   NOT AVBL
N.O. INTL ARPT PTSUNNY   85  72  65 SE18G25   29.91F
N.O. LAKEFRONT PTSUNNY   79  73  82 S17G25    29.92F
N.O. DOWNTOWN* CLOUDY    83  72  69 S15G23    29.92F
RESERVE*         N/A     87  71  60 S17G24    29.90F
SLIDELL        PTSUNNY   82  72  71 S15G21    29.94F
BATON ROUGE    MOSUNNY   85  68  56 SE18G25   29.87F
BOOTHVILLE     SUNNY     80  73  79 S13       29.95F
BELLE CHASSE   PTSUNNY   82  73  74 SE16      29.92F
BOGALUSA*      PTSUNNY   84  69  58 SE14G24   29.95F
GALLIANO*      CLOUDY    83  73  72 SE13G20   29.93S
NEW ROADS*       N/A     84  71  64 SE22G28   29.86F
GONZALES*        N/A     84  69  61 S12G21    29.88F
HAMMOND*       CLOUDY    81  70  69 SE13      29.91F
HOUMA*         PTSUNNY   82  75  78 S17G23    29.91F
PORT FOURCHON* MOSUNNY   81  75  83 SE13G23   29.93F

$$

MSZ070-080>082-291800-
SOUTHERN MISSISSIPPI

CITY           SKY/WX    TMP DP  RH WIND       PRES   REMARKS
MCCOMB         PTSUNNY   80  70  71 S20G25    29.91F
GULFPORT       PTSUNNY   80  73  79 S12G22    29.96F
BILOXI         CLOUDY    80  76  88 S12G18    29.97S
PASCAGOULA     MOSUNNY   82  72  71 SE12      29.97S
STENNIS ARPT*  CLOUDY    81  68  65 S14G21    29.96F

$$

COASTAL OBSERVATIONS
LAKE AND NEARSHORE STATIONS

STATION/POSITION TIME  TEMP    WIND        PRES    WAVE
                       AIR SEA DIR/SP/G            HT/PER
                 (UTC) (F)     (DEG/KT/KT) (MB)    (FT/S)
WAVELAND YACHT   1600   76 74  170/ 10/ 13 1014.7
GRAND ISLE       1600   78 77  160/  7/ 12 1013.8
SOUTHWEST PASS   1600          140/  5/  8   N/A
NEW CANAL        1600   82 74  170/  9/ 15 1013.2
SHELL BEACH      1600   78 75  160/ 11/ 15 1014.6

OFFSHORE STATIONS

STATION/POSITION TIME  TEMP    WIND        PRES    WAVE
                       AIR SEA DIR/SP/G            HT/PER
                 (UTC) (F)     (DEG/KT/KT) (MB)    (FT/S)
64 S DAUPHIN ISL 1600   75 74  120/  8/ 10 1014.6

$$





USA.gov is the U.S. government's official web portal to all federal, state and local government web resources and services.